Regional Weather Roundup
Issued by NWS

Home | Current Version | Previous Version | Text Only | Print | Product List | Glossary On
Versions: 1 2 3 4 5 6 7 8 9 10 11 12 13 14 15 16 17 18 19 20 21 22 23 24 25 26 27 28 29 30 31 32 33 34 35 36 37 38 39 40 41 42 43 44 45 46 47 48 49 50
000
ASUS43 KDTX 291201
RWRMI
MICHIGAN HOURLY REGIONAL WEATHER ROUNDUP
NATIONAL WEATHER SERVICE DETROIT/PONTIAC MI
800 AM EDT FRI AUG 29 2014

NOTE: "FAIR" INDICATES FEW OR NO CLOUDS BELOW 12,000 FEET WITH NO
SIGNIFICANT WEATHER AND/OR OBSTRUCTION TO VISIBILITY.

MIZ047>049-052>055-059>063-066>070-074>076-081>083-291300-
SOUTHEAST LOWER MICHIGAN

CITY           SKY/WX    TMP DP  RH WIND       PRES   REMARKS
ADRIAN         MOSUNNY   59  51  75 SE5       30.14S
6HR MIN TEMP:  58; 6HR MAX TEMP:  60;

ALMA           CLOUDY    59  55  87 SE6       30.11R
ANN ARBOR      PTSUNNY   59  54  83 S3        30.13R
BAD AXE        PTSUNNY   57  55  92 SE6       30.15S
6HR MIN TEMP:  49; 6HR MAX TEMP:  57;

CARO           PTSUNNY   57  53  85 SE5       30.13S
DETROIT CITY   MOSUNNY   66  55  67 SE5       30.15R
6HR MIN TEMP:  62; 6HR MAX TEMP:  66;

DETROIT        PTSUNNY   64  56  75 E3        30.15R
6HR MIN TEMP:  59; 6HR MAX TEMP:  64;

FLINT          PTSUNNY   63  55  75 SE9       30.13R
6HR MIN TEMP:  58; 6HR MAX TEMP:  63;

GROSSE ILE     MOSUNNY   66  55  68 SE6       30.13R
HILLSDALE      PTSUNNY   61  52  72 SE6       30.12S
6HR MIN TEMP:  59; 6HR MAX TEMP:  62;

HOWELL         PTSUNNY   59  56  88 SE8       30.13R

CITY           SKY/WX    TMP DP  RH WIND       PRES   REMARKS
JACKSON        CLOUDY    62  50  64 S12       30.13R
6HR MIN TEMP:  60; 6HR MAX TEMP:  62;

LAMBERTVILLE   MOSUNNY   61  52  72 SE5       30.14S
LANSING        CLOUDY    62  52  69 SE10      30.11S
6HR MIN TEMP:  61; 6HR MAX TEMP:  63;

LAPEER         PTSUNNY   56  52  85 SE5       30.15R
MASON          CLOUDY    58  53  84 SE5       30.12R
MONROE         MOSUNNY   66  54  63 SE9       30.13R
MT. CLEMENS    PTSUNNY   64  58  81 E8        30.13S
6HR MIN TEMP:  59; 6HR MAX TEMP:  64;

PONTIAC        PTSUNNY   62  55  77 SE6       30.14R
6HR MIN TEMP:  58; 6HR MAX TEMP:  62;

PORT HOPE        N/A     60  53  77 VRB3      30.14R
6HR MIN TEMP:  56; 6HR MAX TEMP:  60;

PORT HURON     PTSUNNY   55  55 100 CALM      30.16S
TRI CITIES     PTSUNNY   62  54  74 SE7       30.13S
6HR MIN TEMP:  59; 6HR MAX TEMP:  62;

TROY           MOSUNNY   61  55  81 CALM      30.16R
SAGINAW HB     CLOUDY    59  55  88 SE5       30.12S
$$
MIZ043>046-050>051-056>058-064>065-071>073-077>080-291300-
SOUTHWEST LOWER MICHIGAN

CITY           SKY/WX    TMP DP  RH WIND       PRES   REMARKS
BATTLE CREEK   MOCLDY    63  49  60 SE9       30.10R
6HR MIN TEMP:  63; 6HR MAX TEMP:  64;

BENTON HARBOR  CLOUDY    65  59  81 SE10      30.04R
6HR MIN TEMP:  65; 6HR MAX TEMP:  66; 6HR PCP: TRACE;

BIG RAPIDS     CLOUDY    61  58  90 SE8       30.07S
6HR MIN TEMP:  59; 6HR MAX TEMP:  61;

COLDWATER      CLOUDY    63  54  73 E6        30.11R
6HR MIN TEMP:  62; 6HR MAX TEMP:  64;

FREMONT        CLOUDY    64  55  75 SE8       30.04F
HOLLAND        MOCLDY    67  58  72 SE9       30.05S
6HR MIN TEMP:  63; 6HR MAX TEMP:  67;

GRAND RAPIDS   MOCLDY    63  57  81 SE9       30.08R
6HR MIN TEMP:  62; 6HR MAX TEMP:  63;

IONIA          FAIR      61  55  79 SE6       30.09R
KALAMAZOO      CLOUDY    63  51  65 SE5       30.09S
6HR MIN TEMP:  63; 6HR MAX TEMP:  65;

LUDINGTON      CLOUDY    64  58  78 SE10      30.01F
MARSHALL       MOCLDY    61  49  65 SE7       30.10S
MOUNT PLEASANT CLOUDY    59  54  82 E5        30.10S
6HR MIN TEMP:  58; 6HR MAX TEMP:  60;

MUSKEGON       CLOUDY    66  57  72 SE13      30.03F
6HR MIN TEMP:  63; 6HR MAX TEMP:  66;

SOUTH HAVEN    CLOUDY    66  59  78 SE8       30.04S
$$
MIZ016>042-291300-
NORTHERN LOWER MICHIGAN

CITY           SKY/WX    TMP DP  RH WIND       PRES   REMARKS
ALPENA         PTSUNNY   57  53  86 SE7       30.12S
6HR MIN TEMP:  49; 6HR MAX TEMP:  57;

BEAVER ISLAND  LGT RAIN  59  57  92 SE5       30.06R
6HR MIN TEMP:  54; 6HR MAX TEMP:  61;

BELLAIRE       RAIN      60  56  87 S3        30.07R
6HR MIN TEMP:  55; 6HR MAX TEMP:  63;

CADILLAC       RAIN      58  56  92 SE9       30.07F
CHARLEVOIX     LGT RAIN  59  56  91 SE5       30.10R
6HR MIN TEMP:  58; 6HR MAX TEMP:  60;

FRANKFORT      DRIZZLE   60  56  86 SE8       30.01F
GAYLORD        LGT RAIN  56  52  86 S8        30.10R
6HR MIN TEMP:  53; 6HR MAX TEMP:  56; 6HR PCP:  0.01;

GRAYLING       HVY RAIN  56  55  93 S6        30.12R
6HR MIN TEMP:  54; 6HR MAX TEMP:  58;

HARBOR SPRINGS RAIN      60  53  76 NE5       30.08R
HOUGHTON LAKE  LGT RAIN  57  52  83 SE5       30.12R
6HR MIN TEMP:  54; 6HR MAX TEMP:  58; 6HR PCP:  0.01;

MANISTEE       CLOUDY    61  55  82 E7        30.02S
OSCODA         PTSUNNY   61  55  79 SE5       30.12F
PELLSTON       CLOUDY    56  54  93 CALM      30.08S
6HR MIN TEMP:  48; 6HR MAX TEMP:  56; 6HR PCP: TRACE;

TRAVERSE CITY  LGT RAIN  59  56  89 VRB5      30.04S
6HR MIN TEMP:  59; 6HR MAX TEMP:  63; 6HR PCP:  0.11;

$$
MIZ007>008-015-291300-
EASTERN UPPER MICHIGAN

CITY           SKY/WX    TMP DP  RH WIND       PRES   REMARKS
KINROSS        CLOUDY    55  55 100 SE8       30.08S
6HR MIN TEMP:  52; 6HR MAX TEMP:  55;

MACKINAC ISLAN LGT RAIN  58  54  85 S9        30.07F
6HR MIN TEMP:  57; 6HR MAX TEMP:  58;

NEWBERRY       CLOUDY    55  54  95 S6        30.05S
S. S. MARIE    CLOUDY    53  51  93 NE5       30.08S
6HR MIN TEMP:  50; 6HR MAX TEMP:  53;

$$
MIZ004>006-011>014-085-291300-
CENTRAL UPPER MICHIGAN

CITY           SKY/WX    TMP DP  RH WIND       PRES   REMARKS
MANISTIQUE     CLOUDY    62  60  94 SE7       30.02F
ESCANABA       CLOUDY    63  57  82 S8        30.00R
6HR MIN TEMP:  63; 6HR MAX TEMP:  64; 6HR PCP:  0.02;

MENOMINEE      CLOUDY    61  57  88 SE9       29.98S
6HR MIN TEMP:  61; 6HR MAX TEMP:  64; 6HR PCP:  0.40;

SAWYER-GWINN   CLOUDY    57  55  94 S8        30.00F
$$
MIZ001>003-009>011-084-291300-
WESTERN UPPER MICHIGAN

CITY           SKY/WX    TMP DP  RH WIND       PRES   REMARKS
IRON MOUNTAIN  CLOUDY    58  57  97 SE5       29.97F FOG
6HR MIN TEMP:  58; 6HR MAX TEMP:  59; 6HR PCP: TRACE;

HOUGHTON       CLOUDY    60  55  83 SE7       29.94F
6HR MIN TEMP:  58; 6HR MAX TEMP:  60;

COPPER HARBOR    N/A     61  56  83 SW9G20    29.95S
6HR MIN TEMP:  60; 6HR MAX TEMP:  62;

$$

ABBREVIATIONS USED IN REMARKS
   TC - TEMPERATURE IN CELSIUS
  WCI - WIND CHILL INDEX
   HX - HEAT INDEX
  VSB - VISIBILITY



USA.gov is the U.S. government's official web portal to all federal, state and local government web resources and services.